| time (UTC) | temp C | wind direction | speed KPH | gust KPH | rain 1hr cm | rain 24hr cm | rain mn cm | humidity % | barometer mb |
| 20260506081333 | 23 | 198 | 8.0 | 20.9 | 0.00 | 0.00 | 0.00 | 93 | 1009.5 |
| 20260506080832 | 23 | 190 | 9.7 | 22.5 | 0.00 | 0.00 | 0.00 | 93 | 1009.5 |
| 20260506080332 | 23 | 175 | 9.7 | 22.5 | 0.00 | 0.00 | 0.00 | 92 | 1009.5 |
| 20260506073326 | 23 | 199 | 8.0 | 25.7 | 0.00 | 0.00 | 0.00 | 93 | 1009.9 |
| 20260506072823 | 23 | 169 | 8.0 | 25.7 | 0.00 | 0.00 | 0.00 | 93 | 1009.9 |
| 20260506072322 | 23 | 186 | 9.7 | 25.7 | 0.00 | 0.00 | 0.00 | 93 | 1010.1 |
| 20260506071819 | 23 | 159 | 11.3 | 29.0 | 0.00 | 0.00 | 0.00 | 93 | 1010.0 |
| 20260506071807 | 23 | 159 | 11.3 | 29.0 | 0.00 | 0.00 | 0.00 | 93 | 1010.0 |
| 20260506070820 | 23 | 169 | 12.9 | 30.6 | 0.00 | 0.00 | 0.00 | 93 | 1010.0 |
| 20260506070316 | 23 | 191 | 11.3 | 30.6 | 0.00 | 0.00 | 0.00 | 93 | 1010.0 |
| 20260506062309 | 23 | 161 | 11.3 | 22.5 | 0.00 | 0.00 | 0.00 | 93 | 1009.6 |
| 20260506061809 | 23 | 174 | 11.3 | 22.5 | 0.00 | 0.00 | 0.00 | 93 | 1009.5 |
| 20260506061308 | 23 | 176 | 11.3 | 22.5 | 0.00 | 0.00 | 0.00 | 93 | 1009.5 |
| 20260506061254 | 23 | 171 | 11.3 | 27.4 | 0.00 | 0.00 | 0.00 | 93 | 1009.5 |
| 20260506060528 | 23 | 137 | 11.3 | 27.4 | 0.00 | 0.00 | 0.00 | 93 | 1009.4 |
| 20260506051254 | 23 | 166 | 11.3 | 27.4 | 0.00 | 0.00 | 0.00 | 93 | 1009.6 |
| 20260506050755 | 24 | 165 | 9.7 | 27.4 | 0.00 | 0.00 | 0.00 | 93 | 1009.8 |
| 20260506050255 | 23 | 173 | 8.0 | 17.7 | 0.00 | 0.00 | 0.00 | 93 | 1009.9 |
| 20260506044752 | 23 | 201 | 8.0 | 19.3 | 0.00 | 0.00 | 0.00 | 92 | 1009.5 |
| 20260506044252 | 23 | 190 | 8.0 | 22.5 | 0.00 | 0.00 | 0.00 | 92 | 1009.5 |
| 20260506043752 | 24 | 184 | 8.0 | 22.5 | 0.00 | 0.00 | 0.00 | 92 | 1009.6 |
| 20260506043252 | 24 | 197 | 8.0 | 17.7 | 0.00 | 0.00 | 0.00 | 92 | 1009.5 |
| 20260506043017 | 24 | 167 | 9.7 | 19.3 | 0.00 | 0.00 | 0.00 | 92 | 1009.6 |
| 20260506042531 | 24 | 160 | 9.7 | 19.3 | 0.00 | 0.00 | 0.00 | 92 | 1009.8 |
| 20260506042029 | 24 | 131 | 9.7 | 17.7 | 0.00 | 0.00 | 0.00 | 91 | 1009.3 |
| 20260506042003 | 24 | 157 | 9.7 | 17.7 | 0.00 | 0.00 | 0.00 | 91 | 1009.5 |
| 20260506040745 | 24 | 138 | 8.0 | 17.7 | 0.00 | 0.00 | 0.00 | 91 | 1009.4 |
| 20260506040242 | 24 | 198 | 8.0 | 17.7 | 0.00 | 0.00 | 0.00 | 91 | 1009.3 |
| 20260506035739 | 24 | 194 | 8.0 | 17.7 | 0.00 | 0.00 | 0.00 | 91 | 1009.3 |
| 20260506035239 | 24 | 165 | 8.0 | 16.1 | 0.00 | 0.00 | 0.00 | 90 | 1009.1 |
| 20260506034740 | 24 | 167 | 4.8 | 11.3 | 0.00 | 0.00 | 0.00 | 90 | 1009.3 |
| 20260506034240 | 24 | 155 | 4.8 | 11.3 | 0.00 | 0.00 | 0.00 | 89 | 1009.3 |
| 20260506033739 | 24 | 150 | 4.8 | 11.3 | 0.00 | 0.00 | 0.00 | 89 | 1009.1 |
| 20260506033238 | 24 | 155 | 4.8 | 14.5 | 0.00 | 0.00 | 0.00 | 89 | 1009.1 |
| 20260506032737 | 24 | 184 | 4.8 | 14.5 | 0.00 | 0.00 | 0.00 | 89 | 1009.0 |
| 20260506032459 | 25 | 155 | 4.8 | 16.1 | 0.00 | 0.00 | 0.00 | 88 | 1009.1 |
| 20260506031735 | 25 | 169 | 4.8 | 16.1 | 0.00 | 0.00 | 0.00 | 88 | 1009.0 |
| 20260506031233 | 25 | 175 | 6.4 | 12.9 | 0.00 | 0.00 | 0.00 | 88 | 1009.0 |
| 20260506030734 | 25 | 165 | 6.4 | 12.9 | 0.00 | 0.00 | 0.00 | 88 | 1008.9 |
| 20260506030233 | 25 | 155 | 6.4 | 16.1 | 0.00 | 0.00 | 0.00 | 88 | 1008.8 |
| 20260506025734 | 25 | 169 | 6.4 | 16.1 | 0.00 | 0.00 | 0.00 | 88 | 1008.8 |
| 20260506025233 | 25 | 161 | 6.4 | 11.3 | 0.00 | 0.00 | 0.00 | 88 | 1008.7 |
| 20260506025000 | 25 | 186 | 6.4 | 11.3 | 0.00 | 0.00 | 0.00 | 87 | 1008.7 |
| 20260506024234 | 25 | 165 | 6.4 | 11.3 | 0.00 | 0.00 | 0.00 | 87 | 1008.7 |
| 20260506023736 | 25 | 147 | 6.4 | 12.9 | 0.00 | 0.00 | 0.00 | 87 | 1008.6 |
| 20260506023506 | 25 | 178 | 6.4 | 12.9 | 0.00 | 0.00 | 0.00 | 87 | 1008.4 |
| 20260506022734 | 25 | 150 | 6.4 | 12.9 | 0.00 | 0.00 | 0.00 | 87 | 1008.4 |
| 20260506022234 | 25 | 160 | 6.4 | 12.9 | 0.00 | 0.00 | 0.00 | 87 | 1008.4 |
| 20260506021733 | 25 | 156 | 6.4 | 12.9 | 0.00 | 0.00 | 0.00 | 86 | 1008.3 |
| 20260506021231 | 25 | 134 | 4.8 | 12.9 | 0.00 | 0.00 | 0.00 | 86 | 1008.1 |
| 20260506020729 | 25 | 176 | 4.8 | 11.3 | 0.00 | 0.00 | 0.00 | 86 | 1008.2 |
| 20260506020228 | 25 | 154 | 4.8 | 11.3 | 0.00 | 0.00 | 0.00 | 85 | 1008.1 |
| 20260506015726 | 25 | 153 | 4.8 | 9.7 | 0.00 | 0.00 | 0.00 | 85 | 1008.1 |
| 20260506015225 | 25 | 152 | 3.2 | 9.7 | 0.00 | 0.00 | 0.00 | 84 | 1008.0 |
| 20260506014723 | 25 | 155 | 3.2 | 9.7 | 0.00 | 0.00 | 0.00 | 84 | 1007.9 |
| 20260506014225 | 26 | 163 | 4.8 | 11.3 | 0.00 | 0.00 | 0.00 | 84 | 1008.0 |
| 20260506013723 | 26 | 165 | 6.4 | 12.9 | 0.00 | 0.00 | 0.00 | 83 | 1007.8 |
| 20260506013224 | 26 | 146 | 6.4 | 14.5 | 0.00 | 0.00 | 0.00 | 83 | 1007.7 |
| 20260506013215 | 26 | 164 | 6.4 | 14.5 | 0.00 | 0.00 | 0.00 | 83 | 1007.7 |
| 20260506012221 | 26 | 150 | 6.4 | 16.1 | 0.00 | 0.00 | 0.00 | 82 | 1007.6 |
| 20260506011721 | 26 | 168 | 6.4 | 16.1 | 0.00 | 0.00 | 0.00 | 82 | 1007.6 |
| 20260506011442 | 26 | 163 | 8.0 | 17.7 | 0.00 | 0.00 | 0.00 | 82 | 1007.5 |
| 20260506010947 | 26 | 158 | 8.0 | 17.7 | 0.00 | 0.00 | 0.00 | 81 | 1007.5 |
| 20260506010213 | 26 | 159 | 6.4 | 17.7 | 0.00 | 0.00 | 0.00 | 81 | 1007.4 |
| 20260506005713 | 26 | 168 | 6.4 | 17.7 | 0.00 | 0.00 | 0.00 | 80 | 1007.4 |
| 20260506005213 | 27 | 155 | 8.0 | 16.1 | 0.00 | 0.00 | 0.00 | 80 | 1007.4 |
| 20260506004713 | 27 | 211 | 8.0 | 19.3 | 0.00 | 0.00 | 0.00 | 80 | 1007.4 |
| 20260506004213 | 27 | 136 | 8.0 | 22.5 | 0.00 | 0.00 | 0.00 | 79 | 1007.5 |
| 20260506003713 | 27 | 163 | 8.0 | 22.5 | 0.00 | 0.00 | 0.00 | 79 | 1007.5 |
| 20260506003449 | 27 | 144 | 9.7 | 22.5 | 0.00 | 0.00 | 0.00 | 79 | 1007.6 |
| 20260506002937 | 27 | 163 | 11.3 | 22.5 | 0.00 | 0.00 | 0.00 | 78 | 1007.6 |
| 20260506002211 | 27 | 0 | 8.0 | 19.3 | 0.00 | 0.00 | 0.00 | 78 | 1007.5 |
| 20260506001942 | 27 | 158 | 6.4 | 16.1 | 0.00 | 0.00 | 0.00 | 79 | 1007.6 |
| 20260506001208 | 27 | 193 | 8.0 | 20.9 | 0.00 | 0.00 | 0.00 | 79 | 1007.6 |
| 20260506000706 | 27 | 140 | 8.0 | 20.9 | 0.00 | 0.00 | 0.00 | 78 | 1007.6 |
| 20260506000440 | 27 | 180 | 9.7 | 22.5 | 0.00 | 0.00 | 0.00 | 79 | 1007.6 |
| 20260505235707 | 27 | 160 | 9.7 | 22.5 | 0.00 | 0.00 | 0.00 | 78 | 1007.6 |
| 20260505235205 | 27 | 156 | 8.0 | 19.3 | 0.00 | 0.00 | 0.00 | 77 | 1007.7 |
| 20260505234706 | 28 | 157 | 6.4 | 17.7 | 0.00 | 0.00 | 0.00 | 77 | 1007.6 |
| 20260505234205 | 28 | 155 | 8.0 | 17.7 | 0.00 | 0.00 | 0.00 | 77 | 1007.5 |
| 20260505233703 | 28 | 175 | 8.0 | 19.3 | 0.00 | 0.00 | 0.00 | 77 | 1007.5 |
| 20260505233157 | 28 | 197 | 11.3 | 24.1 | 0.00 | 0.00 | 0.00 | 76 | 1007.4 |
| 20260505232926 | 28 | 155 | 9.7 | 24.1 | 0.00 | 0.00 | 0.00 | 76 | 1007.4 |
| 20260505232144 | 28 | 155 | 9.7 | 19.3 | 0.00 | 0.00 | 0.00 | 76 | 1007.4 |
| 20260505231639 | 28 | 159 | 9.7 | 19.3 | 0.00 | 0.00 | 0.00 | 76 | 1007.3 |
| 20260505231134 | 28 | 186 | 9.7 | 20.9 | 0.00 | 0.00 | 0.00 | 76 | 1007.2 |
| 20260505230902 | 28 | 211 | 8.0 | 20.9 | 0.00 | 0.00 | 0.00 | 76 | 1007.3 |
| 20260505230402 | 28 | 160 | 9.7 | 19.3 | 0.00 | 0.00 | 0.00 | 76 | 1007.2 |
| 20260505225635 | 28 | 206 | 11.3 | 19.3 | 0.00 | 0.00 | 0.00 | 75 | 1007.2 |
| 20260505225135 | 28 | 176 | 9.7 | 19.3 | 0.00 | 0.00 | 0.00 | 75 | 1007.1 |
| 20260505224634 | 28 | 151 | 9.7 | 19.3 | 0.00 | 0.00 | 0.00 | 75 | 1007.1 |
| 20260505224135 | 28 | 170 | 9.7 | 19.3 | 0.00 | 0.00 | 0.00 | 75 | 1007.1 |
| 20260505223900 | 29 | 120 | 9.7 | 19.3 | 0.00 | 0.00 | 0.00 | 74 | 1007.1 |
| 20260505223136 | 29 | 201 | 9.7 | 19.3 | 0.00 | 0.00 | 0.00 | 74 | 1007.2 |
| 20260505222634 | 29 | 164 | 9.7 | 20.9 | 0.00 | 0.00 | 0.00 | 74 | 1007.1 |
| 20260505222135 | 29 | 157 | 12.9 | 22.5 | 0.00 | 0.00 | 0.00 | 74 | 1007.1 |
| 20260505221635 | 29 | 154 | 12.9 | 22.5 | 0.00 | 0.00 | 0.00 | 74 | 1007.0 |
| 20260505221134 | 29 | 173 | 11.3 | 22.5 | 0.00 | 0.00 | 0.00 | 74 | 1006.9 |
| 20260505220634 | 29 | 177 | 11.3 | 25.7 | 0.00 | 0.00 | 0.00 | 73 | 1006.9 |
| 20260505220135 | 29 | 121 | 12.9 | 25.7 | 0.00 | 0.00 | 0.00 | 74 | 1007.0 |
| 20260505215635 | 29 | 178 | 12.9 | 22.5 | 0.00 | 0.00 | 0.00 | 73 | 1007.0 |
| 20260505215133 | 30 | 146 | 11.3 | 22.5 | 0.00 | 0.00 | 0.00 | 72 | 1007.3 |
| 20260505214634 | 30 | 126 | 11.3 | 25.7 | 0.00 | 0.00 | 0.00 | 72 | 1007.2 |
| 20260505214625 | 30 | 181 | 11.3 | 25.7 | 0.00 | 0.00 | 0.00 | 72 | 1007.3 |
| 20260505213621 | 30 | 184 | 9.7 | 24.1 | 0.00 | 0.00 | 0.00 | 72 | 1007.2 |
| 20260505213117 | 30 | 197 | 11.3 | 24.1 | 0.00 | 0.00 | 0.00 | 71 | 1007.2 |
| 20260505212617 | 30 | 151 | 11.3 | 20.9 | 0.00 | 0.00 | 0.00 | 71 | 1007.1 |
| 20260505212351 | 30 | 180 | 11.3 | 24.1 | 0.00 | 0.00 | 0.00 | 72 | 1007.4 |
| 20260505211617 | 30 | 179 | 12.9 | 24.1 | 0.00 | 0.00 | 0.00 | 71 | 1007.4 |
| 20260505211117 | 30 | 137 | 12.9 | 24.1 | 0.00 | 0.00 | 0.00 | 72 | 1007.4 |
| 20260505210617 | 30 | 174 | 12.9 | 24.1 | 0.00 | 0.00 | 0.00 | 71 | 1007.5 |
| 20260505210117 | 30 | 142 | 12.9 | 22.5 | 0.00 | 0.00 | 0.00 | 73 | 1007.8 |
| 20260505205617 | 30 | 157 | 12.9 | 27.4 | 0.00 | 0.00 | 0.00 | 73 | 1007.8 |
| 20260505205117 | 30 | 180 | 12.9 | 27.4 | 0.00 | 0.00 | 0.00 | 74 | 1007.8 |
| 20260505204617 | 30 | 176 | 11.3 | 20.9 | 0.00 | 0.00 | 0.00 | 72 | 1007.8 |
| 20260505204117 | 30 | 144 | 9.7 | 19.3 | 0.00 | 0.00 | 0.00 | 73 | 1008.0 |
| 20260505203617 | 30 | 194 | 9.7 | 25.7 | 0.00 | 0.00 | 0.00 | 73 | 1008.0 |
| 20260505203117 | 30 | 182 | 9.7 | 25.7 | 0.00 | 0.00 | 0.00 | 72 | 1007.9 |
| 20260505202617 | 29 | 226 | 9.7 | 25.7 | 0.00 | 0.00 | 0.00 | 72 | 1008.0 |
| 20260505202117 | 29 | 166 | 12.9 | 29.0 | 0.00 | 0.00 | 0.00 | 74 | 1008.0 |
| 20260505201624 | 29 | 182 | 11.3 | 29.0 | 0.00 | 0.00 | 0.00 | 72 | 1008.2 |
| 20260505201118 | 29 | 159 | 11.3 | 27.4 | 0.00 | 0.00 | 0.00 | 74 | 1008.3 |
| 20260505200620 | 29 | 151 | 12.9 | 27.4 | 0.00 | 0.00 | 0.00 | 74 | 1008.3 |
| 20260505200114 | 29 | 156 | 11.3 | 27.4 | 0.00 | 0.00 | 0.00 | 74 | 1008.4 |
| 20260505195614 | 29 | 244 | 12.9 | 27.4 | 0.00 | 0.00 | 0.00 | 73 | 1008.4 |
| 20260505195114 | 29 | 195 | 11.3 | 27.4 | 0.00 | 0.00 | 0.00 | 73 | 1008.4 |
| 20260505194615 | 29 | 182 | 11.3 | 27.4 | 0.00 | 0.00 | 0.00 | 74 | 1008.4 |
| 20260505194114 | 29 | 204 | 11.3 | 24.1 | 0.00 | 0.00 | 0.00 | 74 | 1008.5 |
| 20260505193615 | 28 | 193 | 11.3 | 24.1 | 0.00 | 0.00 | 0.00 | 75 | 1008.5 |
| 20260505193118 | 28 | 135 | 11.3 | 24.1 | 0.00 | 0.00 | 0.00 | 76 | 1008.6 |
| 20260505193109 | 28 | 155 | 11.3 | 24.1 | 0.00 | 0.00 | 0.00 | 75 | 1008.7 |
| 20260505192115 | 28 | 165 | 9.7 | 25.7 | 0.00 | 0.00 | 0.00 | 75 | 1008.7 |
| 20260505191615 | 28 | 199 | 9.7 | 25.7 | 0.00 | 0.00 | 0.00 | 75 | 1008.7 |
| 20260505191115 | 28 | 239 | 12.9 | 30.6 | 0.00 | 0.00 | 0.00 | 74 | 1008.8 |
| 20260505190615 | 28 | 184 | 12.9 | 30.6 | 0.00 | 0.00 | 0.00 | 76 | 1008.8 |
| 20260505190115 | 28 | 176 | 11.3 | 22.5 | 0.00 | 0.00 | 0.00 | 75 | 1008.9 |
| 20260505185615 | 27 | 184 | 11.3 | 22.5 | 0.00 | 0.00 | 0.00 | 75 | 1009.0 |
| 20260505185115 | 27 | 196 | 9.7 | 22.5 | 0.00 | 0.00 | 0.00 | 77 | 1009.1 |
| 20260505184615 | 27 | 237 | 9.7 | 22.5 | 0.00 | 0.00 | 0.00 | 77 | 1009.3 |
| 20260505184114 | 27 | 199 | 11.3 | 22.5 | 0.00 | 0.00 | 0.00 | 77 | 1009.4 |
| 20260505183614 | 27 | 188 | 9.7 | 20.9 | 0.00 | 0.00 | 0.00 | 78 | 1009.4 |
| 20260505183340 | 26 | 202 | 9.7 | 20.9 | 0.00 | 0.00 | 0.00 | 78 | 1009.6 |
| 20260505182614 | 27 | 184 | 11.3 | 25.7 | 0.00 | 0.00 | 0.00 | 79 | 1009.6 |
| 20260505182115 | 26 | 188 | 12.9 | 25.7 | 0.00 | 0.00 | 0.00 | 79 | 1009.9 |
| 20260505181614 | 26 | 221 | 11.3 | 20.9 | 0.00 | 0.00 | 0.00 | 80 | 1009.9 |
| 20260505181117 | 26 | 153 | 11.3 | 20.9 | 0.00 | 0.00 | 0.00 | 79 | 1009.9 |
| 20260505180615 | 26 | 205 | 11.3 | 22.5 | 0.00 | 0.00 | 0.00 | 79 | 1009.9 |
| 20260505180117 | 26 | 146 | 11.3 | 25.7 | 0.00 | 0.00 | 0.00 | 80 | 1009.9 |
| 20260505175615 | 26 | 202 | 11.3 | 25.7 | 0.00 | 0.00 | 0.00 | 81 | 1010.0 |
| 20260505175114 | 26 | 198 | 11.3 | 22.5 | 0.00 | 0.00 | 0.00 | 82 | 1010.0 |
| 20260505174614 | 25 | 225 | 9.7 | 22.5 | 0.00 | 0.00 | 0.00 | 82 | 1010.1 |
| 20260505174340 | 25 | 199 | 9.7 | 22.5 | 0.00 | 0.00 | 0.00 | 84 | 1010.2 |
| 20260505173839 | 25 | 204 | 9.7 | 24.1 | 0.00 | 0.00 | 0.00 | 84 | 1010.3 |
| 20260505173114 | 24 | 189 | 9.7 | 24.1 | 0.00 | 0.00 | 0.00 | 85 | 1010.3 |
| 20260505172612 | 24 | 188 | 9.7 | 19.3 | 0.00 | 0.00 | 0.00 | 85 | 1010.3 |
| 20260505172559 | 24 | 198 | 9.7 | 22.5 | 0.00 | 0.00 | 0.00 | 85 | 1010.3 |
| 20260505171613 | 24 | 243 | 8.0 | 22.5 | 0.00 | 0.00 | 0.00 | 85 | 1010.4 |
| 20260505171112 | 24 | 251 | 8.0 | 19.3 | 0.00 | 0.00 | 0.00 | 86 | 1010.4 |
| 20260505170613 | 23 | 169 | 9.7 | 19.3 | 0.00 | 0.00 | 0.00 | 86 | 1010.4 |
| 20260505170110 | 23 | 217 | 9.7 | 24.1 | 0.00 | 0.00 | 0.00 | 87 | 1010.4 |
| 20260505165611 | 23 | 185 | 9.7 | 24.1 | 0.00 | 0.00 | 0.00 | 87 | 1010.4 |
| 20260505165109 | 23 | 178 | 9.7 | 22.5 | 0.00 | 0.00 | 0.00 | 87 | 1010.3 |
| 20260505164609 | 23 | 213 | 11.3 | 22.5 | 0.00 | 0.00 | 0.00 | 88 | 1010.4 |
| 20260505164109 | 23 | 190 | 9.7 | 20.9 | 0.00 | 0.00 | 0.00 | 88 | 1010.2 |
| 20260505163609 | 23 | 232 | 8.0 | 20.9 | 0.00 | 0.00 | 0.00 | 89 | 1010.3 |
| 20260505163107 | 23 | 158 | 9.7 | 20.9 | 0.00 | 0.00 | 0.00 | 89 | 1010.4 |
| 20260505162608 | 23 | 228 | 9.7 | 20.9 | 0.00 | 0.00 | 0.00 | 89 | 1010.3 |
| 20260505162327 | 23 | 200 | 8.0 | 20.9 | 0.00 | 0.00 | 0.00 | 89 | 1010.4 |
| 20260505161605 | 22 | 236 | 6.4 | 19.3 | 0.00 | 0.00 | 0.00 | 89 | 1010.4 |
| 20260505161106 | 22 | 254 | 8.0 | 22.5 | 0.00 | 0.00 | 0.00 | 90 | 1010.4 |
| 20260505160606 | 22 | 228 | 9.7 | 22.5 | 0.00 | 0.00 | 0.00 | 90 | 1010.4 |
| 20260505160105 | 22 | 215 | 11.3 | 25.7 | 0.00 | 0.00 | 0.00 | 90 | 1010.3 |
| 20260505153106 | 22 | 234 | 8.0 | 17.7 | 0.00 | 0.00 | 0.00 | 91 | 1010.3 |
| 20260505152832 | 22 | 197 | 8.0 | 20.9 | 0.00 | 0.00 | 0.00 | 91 | 1010.2 |
| 20260505152106 | 22 | 165 | 8.0 | 20.9 | 0.00 | 0.00 | 0.00 | 91 | 1010.2 |
| 20260505151607 | 22 | 231 | 9.7 | 20.9 | 0.00 | 0.00 | 0.00 | 91 | 1010.2 |
| 20260505151106 | 22 | 200 | 11.3 | 20.9 | 0.00 | 0.00 | 0.00 | 91 | 1010.2 |
| 20260505150604 | 22 | 198 | 9.7 | 20.9 | 0.00 | 0.00 | 0.00 | 91 | 1010.2 |
| 20260505140536 | 21 | 194 | 11.3 | 25.7 | 0.00 | 0.00 | 0.00 | 92 | 1009.5 |
| 20260505130253 | 21 | 173 | 9.7 | 20.9 | 0.00 | 0.00 | 0.00 | 92 | 1009.1 |
| 20260505125014 | 21 | 200 | 9.7 | 22.5 | 0.00 | 0.00 | 0.00 | 92 | 1009.0 |
| 20260505124513 | 21 | 214 | 9.7 | 22.5 | 0.00 | 0.00 | 0.00 | 92 | 1009.0 |
| 20260505124459 | 21 | 237 | 9.7 | 19.3 | 0.00 | 0.00 | 0.00 | 92 | 1009.0 |
| 20260505123514 | 21 | 192 | 9.7 | 24.1 | 0.00 | 0.00 | 0.00 | 92 | 1008.9 |
| 20260505123013 | 21 | 198 | 9.7 | 24.1 | 0.00 | 0.00 | 0.00 | 92 | 1008.7 |
| 20260505122512 | 21 | 186 | 11.3 | 29.0 | 0.00 | 0.00 | 0.00 | 92 | 1008.7 |
| 20260505122010 | 21 | 173 | 11.3 | 29.0 | 0.00 | 0.00 | 0.00 | 92 | 1008.6 |
| 20260505121510 | 21 | 213 | 9.7 | 19.3 | 0.00 | 0.00 | 0.00 | 92 | 1008.4 |
| 20260505121010 | 21 | 173 | 9.7 | 19.3 | 0.00 | 0.00 | 0.00 | 92 | 1008.4 |
| 20260505120509 | 21 | 192 | 9.7 | 19.3 | 0.00 | 0.00 | 0.00 | 92 | 1008.3 |
| 20260505120010 | 21 | 177 | 8.0 | 17.7 | 0.00 | 0.00 | 0.00 | 92 | 1008.4 |
| 20260505115507 | 21 | 180 | 8.0 | 16.1 | 0.00 | 0.00 | 0.00 | 92 | 1008.3 |
| 20260505115008 | 21 | 198 | 11.3 | 22.5 | 0.00 | 0.00 | 0.00 | 92 | 1008.2 |
| 20260505114508 | 21 | 208 | 11.3 | 22.5 | 0.00 | 0.00 | 0.00 | 92 | 1008.2 |
| 20260505114007 | 21 | 157 | 9.7 | 20.9 | 0.00 | 0.00 | 0.00 | 92 | 1008.2 |
| 20260505113506 | 21 | 142 | 9.7 | 19.3 | 0.00 | 0.00 | 0.00 | 92 | 1008.2 |
| 20260505113006 | 21 | 156 | 8.0 | 22.5 | 0.00 | 0.00 | 0.00 | 92 | 1008.2 |
| 20260505112503 | 21 | 169 | 8.0 | 22.5 | 0.00 | 0.00 | 0.00 | 92 | 1008.2 |
| 20260505112002 | 21 | 190 | 8.0 | 20.9 | 0.00 | 0.00 | 0.00 | 92 | 1008.3 |
| 20260505111501 | 21 | 202 | 8.0 | 17.7 | 0.00 | 0.00 | 0.00 | 92 | 1008.2 |
| 20260505111002 | 21 | 193 | 8.0 | 20.9 | 0.00 | 0.00 | 0.00 | 92 | 1008.2 |
| 20260505110503 | 21 | 155 | 8.0 | 20.9 | 0.00 | 0.00 | 0.00 | 92 | 1008.2 |
| 20260505102001 | 21 | 188 | 9.7 | 22.5 | 0.00 | 0.00 | 0.00 | 92 | 1008.3 |
| 20260505101501 | 21 | 184 | 9.7 | 20.9 | 0.00 | 0.00 | 0.00 | 92 | 1008.4 |
| 20260505101001 | 21 | 191 | 9.7 | 20.9 | 0.00 | 0.00 | 0.00 | 92 | 1008.4 |
| 20260505100723 | 21 | 228 | 11.3 | 24.1 | 0.00 | 0.00 | 0.00 | 91 | 1008.4 |
| 20260505100001 | 21 | 192 | 11.3 | 24.1 | 0.00 | 0.00 | 0.00 | 91 | 1008.4 |
| 20260505095729 | 21 | 194 | 9.7 | 22.5 | 0.00 | 0.00 | 0.00 | 91 | 1008.5 |
| 20260505095002 | 21 | 164 | 9.7 | 27.4 | 0.00 | 0.00 | 0.00 | 91 | 1008.6 |
| 20260505094501 | 21 | 225 | 11.3 | 27.4 | 0.00 | 0.00 | 0.00 | 91 | 1008.5 |
| 20260505094001 | 21 | 159 | 11.3 | 22.5 | 0.00 | 0.00 | 0.00 | 91 | 1008.5 |
| 20260505093502 | 21 | 182 | 9.7 | 20.9 | 0.00 | 0.00 | 0.00 | 91 | 1008.5 |
| 20260505093001 | 21 | 159 | 9.7 | 25.7 | 0.00 | 0.00 | 0.00 | 91 | 1008.5 |
| 20260505092727 | 21 | 207 | 9.7 | 25.7 | 0.00 | 0.00 | 0.00 | 91 | 1008.6 |
| 20260505092001 | 21 | 177 | 9.7 | 24.1 | 0.00 | 0.00 | 0.00 | 91 | 1008.5 |
| 20260505091501 | 21 | 203 | 11.3 | 24.1 | 0.00 | 0.00 | 0.00 | 91 | 1008.6 |
| 20260505091001 | 21 | 162 | 9.7 | 24.1 | 0.00 | 0.00 | 0.00 | 91 | 1008.6 |
| 20260505090500 | 21 | 203 | 9.7 | 20.9 | 0.00 | 0.00 | 0.00 | 91 | 1008.7 |
| 20260505090001 | 21 | 206 | 9.7 | 20.9 | 0.00 | 0.00 | 0.00 | 91 | 1008.8 |
| 20260505085501 | 21 | 146 | 8.0 | 17.7 | 0.00 | 0.00 | 0.00 | 91 | 1008.8 |
| 20260505085002 | 21 | 186 | 8.0 | 17.7 | 0.00 | 0.00 | 0.00 | 91 | 1008.8 |
| 20260505084501 | 21 | 177 | 9.7 | 22.5 | 0.00 | 0.00 | 0.00 | 91 | 1008.8 |
| 20260505084001 | 21 | 225 | 9.7 | 22.5 | 0.00 | 0.00 | 0.00 | 91 | 1008.9 |
| 20260505083501 | 21 | 211 | 9.7 | 19.3 | 0.00 | 0.00 | 0.00 | 91 | 1008.9 |
| 20260505083001 | 21 | 189 | 8.0 | 19.3 | 0.00 | 0.00 | 0.00 | 91 | 1008.9 |
| 20260505082502 | 21 | 199 | 9.7 | 25.7 | 0.00 | 0.00 | 0.00 | 91 | 1008.9 |
| 20260505082001 | 21 | 197 | 11.3 | 30.6 | 0.00 | 0.00 | 0.00 | 91 | 1008.7 |